| time (UTC) | temp F | wind direction | speed knots | gust knots | rain 1hr in | rain 24hr in | rain mn in | humidity % | barometer mb |
| 20260510031030 | 48 | 0 | 0.9 | 1.7 | 0.00 | 0.30 | 0.30 | 97 | 1010.8 |
| 20260510030529 | 48 | 0 | 0.9 | 2.6 | 0.00 | 0.30 | 0.30 | 97 | 1010.8 |
| 20260510030034 | 0 | 147 | 221.6 | 0.0 | 0.00 | 0.00 | 0.00 | ||
| 20260510030029 | 48 | 0 | 0.9 | 1.7 | 0.00 | 0.30 | 0.30 | 97 | 1011.0 |
| 20260510025529 | 48 | 0 | 0.9 | 2.6 | 0.00 | 0.30 | 0.30 | 97 | 1011.0 |
| 20260510025028 | 48 | 0 | 0.9 | 1.7 | 0.00 | 0.30 | 0.30 | 97 | 1011.0 |
| 20260510024533 | 0 | 147 | 221.6 | 0.0 | 0.00 | 0.00 | 0.00 | ||
| 20260510024528 | 48 | 0 | 0.9 | 1.7 | 0.00 | 0.30 | 0.30 | 97 | 1010.9 |
| 20260510024028 | 48 | 0 | 0.9 | 1.7 | 0.00 | 0.30 | 0.30 | 97 | 1010.9 |
| 20260510023527 | 49 | 0 | 0.9 | 1.7 | 0.00 | 0.30 | 0.30 | 97 | 1010.9 |
| 20260510023032 | 0 | 147 | 221.6 | 0.0 | 0.00 | 0.00 | 0.00 | ||
| 20260510023027 | 49 | 0 | 0.9 | 2.6 | 0.00 | 0.30 | 0.30 | 97 | 1010.8 |
| 20260510022527 | 49 | 0 | 0.9 | 2.6 | 0.00 | 0.30 | 0.30 | 97 | 1010.8 |
| 20260510022027 | 49 | 0 | 0.9 | 2.6 | 0.00 | 0.30 | 0.30 | 97 | 1010.8 |
| 20260510021531 | 0 | 147 | 221.6 | 0.0 | 0.00 | 0.00 | 0.00 | ||
| 20260510021526 | 49 | 0 | 0.9 | 2.6 | 0.00 | 0.30 | 0.30 | 97 | 1010.7 |
| 20260510021027 | 49 | 0 | 0.9 | 1.7 | 0.00 | 0.30 | 0.30 | 97 | 1010.9 |
| 20260510020526 | 49 | 0 | 0.9 | 2.6 | 0.00 | 0.30 | 0.30 | 97 | 1010.8 |
| 20260510020030 | 0 | 147 | 221.6 | 0.0 | 0.00 | 0.00 | 0.00 | ||
| 20260510020026 | 49 | 0 | 1.7 | 2.6 | 0.00 | 0.30 | 0.30 | 97 | 1010.8 |
| 20260510015525 | 49 | 0 | 1.7 | 2.6 | 0.00 | 0.30 | 0.30 | 97 | 1010.9 |
| 20260510015025 | 49 | 0 | 1.7 | 2.6 | 0.00 | 0.30 | 0.30 | 97 | 1010.8 |
| 20260510014531 | 0 | 147 | 221.6 | 0.0 | 0.00 | 0.00 | 0.00 | ||
| 20260510014524 | 49 | 0 | 1.7 | 2.6 | 0.00 | 0.30 | 0.30 | 97 | 1010.8 |
| 20260510014025 | 48 | 0 | 1.7 | 2.6 | 0.00 | 0.30 | 0.30 | 96 | 1010.8 |
| 20260510013524 | 49 | 0 | 0.9 | 2.6 | 0.00 | 0.30 | 0.30 | 96 | 1010.8 |
| 20260510013029 | 0 | 147 | 221.6 | 0.0 | 0.00 | 0.00 | 0.00 | ||
| 20260510013024 | 49 | 0 | 0.9 | 2.6 | 0.00 | 0.30 | 0.30 | 96 | 1010.8 |
| 20260510012524 | 49 | 0 | 1.7 | 3.5 | 0.00 | 0.30 | 0.30 | 96 | 1010.7 |
| 20260510012023 | 49 | 0 | 0.9 | 2.6 | 0.00 | 0.30 | 0.30 | 96 | 1010.7 |
| 20260510011528 | 0 | 147 | 221.6 | 0.0 | 0.00 | 0.00 | 0.00 | ||
| 20260510011523 | 49 | 0 | 0.9 | 1.7 | 0.00 | 0.30 | 0.30 | 96 | 1010.6 |
| 20260510011022 | 49 | 0 | 0.9 | 3.5 | 0.00 | 0.30 | 0.30 | 96 | 1010.4 |
| 20260510010522 | 49 | 0 | 1.7 | 3.5 | 0.00 | 0.30 | 0.30 | 96 | 1010.3 |
| 20260510010027 | 0 | 147 | 221.6 | 0.0 | 0.00 | 0.00 | 0.00 | ||
| 20260510010022 | 49 | 0 | 1.7 | 2.6 | 0.00 | 0.30 | 0.30 | 96 | 1010.4 |
| 20260510005522 | 49 | 0 | 0.9 | 2.6 | 0.00 | 0.30 | 0.30 | 96 | 1010.2 |
| 20260510005021 | 49 | 0 | 0.9 | 4.3 | 0.00 | 0.30 | 0.30 | 95 | 1010.2 |
| 20260510004526 | 0 | 147 | 221.6 | 0.0 | 0.00 | 0.00 | 0.00 | ||
| 20260510004521 | 49 | 0 | 0.9 | 1.7 | 0.00 | 0.30 | 0.30 | 95 | 1010.1 |
| 20260510004021 | 49 | 0 | 0.9 | 3.5 | 0.00 | 0.30 | 0.30 | 94 | 1010.0 |
| 20260510003521 | 50 | 227 | 0.9 | 1.7 | 0.00 | 0.30 | 0.30 | 94 | 1010.0 |
| 20260510003025 | 0 | 147 | 221.6 | 0.0 | 0.00 | 0.00 | 0.00 | ||
| 20260510003020 | 50 | 227 | 1.7 | 3.5 | 0.00 | 0.30 | 0.30 | 94 | 1010.0 |
| 20260510002520 | 50 | 234 | 1.7 | 2.6 | 0.00 | 0.30 | 0.30 | 94 | 1010.0 |
| 20260510002020 | 50 | 182 | 1.7 | 3.5 | 0.00 | 0.30 | 0.30 | 94 | 1010.1 |
| 20260510001525 | 0 | 147 | 221.6 | 0.0 | 0.00 | 0.00 | 0.00 | ||
| 20260510001519 | 50 | 252 | 0.9 | 3.5 | 0.00 | 0.30 | 0.30 | 94 | 1010.0 |
| 20260510001019 | 50 | 167 | 1.7 | 2.6 | 0.00 | 0.30 | 0.30 | 94 | 1009.9 |
| 20260510000519 | 50 | 172 | 1.7 | 3.5 | 0.00 | 0.30 | 0.30 | 94 | 1009.8 |
| 20260510000023 | 0 | 147 | 221.6 | 0.0 | 0.00 | 0.00 | 0.00 | ||
| 20260510000019 | 50 | 215 | 1.7 | 3.5 | 0.00 | 0.30 | 0.30 | 94 | 1009.8 |
| 20260509235018 | 51 | 196 | 1.7 | 2.6 | 0.00 | 0.30 | 0.30 | 94 | 1009.6 |
| 20260509234522 | 0 | 147 | 221.6 | 0.0 | 0.00 | 0.00 | 0.00 | ||
| 20260509234517 | 51 | 198 | 1.7 | 4.3 | 0.00 | 0.30 | 0.30 | 94 | 1009.7 |
| 20260509234017 | 51 | 213 | 1.7 | 4.3 | 0.00 | 0.30 | 0.30 | 94 | 1009.6 |
| 20260509233517 | 51 | 207 | 1.7 | 7.0 | 0.00 | 0.30 | 0.30 | 94 | 1009.6 |
| 20260509233023 | 0 | 147 | 221.6 | 0.0 | 0.00 | 0.00 | 0.00 | ||
| 20260509233017 | 51 | 219 | 1.7 | 3.5 | 0.00 | 0.30 | 0.30 | 94 | 1009.5 |
| 20260509232516 | 52 | 167 | 0.9 | 2.6 | 0.00 | 0.30 | 0.30 | 94 | 1009.4 |
| 20260509232016 | 52 | 168 | 1.7 | 3.5 | 0.00 | 0.30 | 0.30 | 94 | 1009.4 |
| 20260509231521 | 0 | 147 | 221.6 | 0.0 | 0.00 | 0.00 | 0.00 | ||
| 20260509231516 | 52 | 228 | 1.7 | 2.6 | 0.00 | 0.30 | 0.30 | 93 | 1009.4 |
| 20260509231015 | 52 | 236 | 0.9 | 4.3 | 0.00 | 0.30 | 0.30 | 93 | 1009.4 |
| 20260509230515 | 53 | 184 | 1.7 | 2.6 | 0.00 | 0.30 | 0.30 | 93 | 1009.4 |
| 20260509230020 | 0 | 147 | 221.6 | 0.0 | 0.00 | 0.00 | 0.00 | ||
| 20260509230015 | 52 | 184 | 1.7 | 3.5 | 0.00 | 0.30 | 0.30 | 93 | 1009.5 |
| 20260509225515 | 53 | 236 | 2.6 | 4.3 | 0.00 | 0.30 | 0.30 | 93 | 1009.5 |
| 20260509225014 | 53 | 216 | 2.6 | 5.2 | 0.00 | 0.30 | 0.30 | 93 | 1009.5 |
| 20260509224519 | 0 | 147 | 221.6 | 0.0 | 0.00 | 0.00 | 0.00 | ||
| 20260509224515 | 53 | 214 | 2.6 | 6.1 | 0.00 | 0.30 | 0.30 | 93 | 1009.5 |
| 20260509224014 | 53 | 207 | 2.6 | 4.3 | 0.00 | 0.30 | 0.30 | 93 | 1009.5 |
| 20260509223513 | 53 | 254 | 2.6 | 5.2 | 0.00 | 0.30 | 0.30 | 94 | 1009.5 |
| 20260509223018 | 0 | 147 | 221.6 | 0.0 | 0.00 | 0.00 | 0.00 | ||
| 20260509223013 | 53 | 288 | 2.6 | 5.2 | 0.00 | 0.30 | 0.30 | 94 | 1009.5 |
| 20260509222513 | 53 | 257 | 2.6 | 6.1 | 0.00 | 0.30 | 0.30 | 94 | 1009.5 |
| 20260509222013 | 53 | 251 | 1.7 | 5.2 | 0.00 | 0.30 | 0.30 | 95 | 1009.6 |
| 20260509221517 | 0 | 147 | 221.6 | 0.0 | 0.00 | 0.00 | 0.00 | ||
| 20260509221513 | 53 | 245 | 1.7 | 3.5 | 0.00 | 0.30 | 0.30 | 95 | 1009.5 |
| 20260509221012 | 52 | 250 | 1.7 | 3.5 | 0.00 | 0.30 | 0.30 | 95 | 1009.5 |
| 20260509220512 | 52 | 253 | 1.7 | 4.3 | 0.00 | 0.30 | 0.30 | 95 | 1009.5 |
| 20260509220017 | 0 | 147 | 221.6 | 0.0 | 0.00 | 0.00 | 0.00 | ||
| 20260509220012 | 52 | 265 | 1.7 | 4.3 | 0.00 | 0.30 | 0.30 | 94 | 1009.6 |
| 20260509215511 | 52 | 173 | 1.7 | 4.3 | 0.00 | 0.30 | 0.30 | 94 | 1009.6 |
| 20260509215011 | 52 | 229 | 1.7 | 3.5 | 0.00 | 0.30 | 0.30 | 95 | 1009.6 |
| 20260509214516 | 0 | 147 | 221.6 | 0.0 | 0.00 | 0.00 | 0.00 | ||
| 20260509214511 | 52 | 225 | 1.7 | 4.3 | 0.00 | 0.30 | 0.30 | 95 | 1009.7 |
| 20260509214010 | 52 | 257 | 2.6 | 6.1 | 0.00 | 0.30 | 0.30 | 95 | 1009.7 |
| 20260509213510 | 52 | 282 | 1.7 | 5.2 | 0.00 | 0.30 | 0.30 | 95 | 1009.8 |
| 20260509213014 | 0 | 147 | 221.6 | 0.0 | 0.00 | 0.00 | 0.00 | ||
| 20260509213010 | 52 | 252 | 1.7 | 6.1 | 0.00 | 0.30 | 0.30 | 96 | 1009.7 |
| 20260509212510 | 52 | 232 | 2.6 | 4.3 | 0.00 | 0.30 | 0.30 | 96 | 1009.6 |
| 20260509212010 | 52 | 258 | 2.6 | 5.2 | 0.00 | 0.30 | 0.30 | 96 | 1009.7 |
| 20260509211514 | 0 | 147 | 221.6 | 0.0 | 0.00 | 0.00 | 0.00 | ||
| 20260509211509 | 52 | 262 | 1.7 | 5.2 | 0.00 | 0.30 | 0.30 | 96 | 1009.8 |
| 20260509211008 | 52 | 251 | 1.7 | 3.5 | 0.00 | 0.30 | 0.30 | 96 | 1009.9 |
| 20260509210508 | 52 | 248 | 2.6 | 5.2 | 0.00 | 0.30 | 0.30 | 96 | 1009.8 |
| 20260509210013 | 0 | 147 | 221.6 | 0.0 | 0.00 | 0.00 | 0.00 | ||
| 20260509210008 | 51 | 311 | 2.6 | 5.2 | 0.01 | 0.30 | 0.30 | 96 | 1009.9 |
| 20260509205508 | 51 | 239 | 2.6 | 4.3 | 0.01 | 0.30 | 0.30 | 96 | 1009.9 |
| 20260509205007 | 51 | 200 | 2.6 | 6.1 | 0.02 | 0.30 | 0.30 | 96 | 1009.9 |
| 20260509204512 | 0 | 147 | 221.6 | 0.0 | 0.00 | 0.00 | 0.00 | ||
| 20260509204507 | 51 | 152 | 1.7 | 6.1 | 0.02 | 0.30 | 0.30 | 96 | 1009.9 |
| 20260509204007 | 51 | 194 | 1.7 | 5.2 | 0.02 | 0.30 | 0.30 | 96 | 1009.9 |
| 20260509203506 | 51 | 229 | 2.6 | 5.2 | 0.03 | 0.30 | 0.30 | 97 | 1010.0 |
| 20260509203011 | 0 | 147 | 221.6 | 0.0 | 0.00 | 0.00 | 0.00 | ||
| 20260509203006 | 51 | 266 | 2.6 | 7.0 | 0.04 | 0.30 | 0.30 | 96 | 1010.1 |
| 20260509202506 | 50 | 250 | 3.5 | 5.2 | 0.04 | 0.30 | 0.30 | 96 | 1010.0 |
| 20260509202006 | 50 | 240 | 3.5 | 7.8 | 0.05 | 0.30 | 0.30 | 97 | 1010.1 |
| 20260509201510 | 0 | 147 | 221.6 | 0.0 | 0.00 | 0.00 | 0.00 | ||
| 20260509201505 | 51 | 246 | 3.5 | 7.0 | 0.05 | 0.30 | 0.30 | 97 | 1010.3 |
| 20260509201005 | 51 | 166 | 2.6 | 6.1 | 0.06 | 0.30 | 0.30 | 97 | 1010.3 |
| 20260509200505 | 50 | 261 | 2.6 | 7.0 | 0.07 | 0.30 | 0.30 | 97 | 1010.4 |
| 20260509200107 | 50 | 242 | 1.7 | 4.3 | 0.06 | 0.29 | 0.29 | 97 | 1010.4 |
| 20260509200009 | 0 | 147 | 221.6 | 0.0 | 0.00 | 0.00 | 0.00 | ||
| 20260509200004 | 50 | 242 | 1.7 | 4.3 | 0.06 | 0.29 | 0.29 | 97 | 1010.4 |
| 20260509195504 | 50 | 240 | 1.7 | 4.3 | 0.07 | 0.29 | 0.29 | 97 | 1010.3 |
| 20260509195004 | 50 | 247 | 1.7 | 4.3 | 0.06 | 0.28 | 0.28 | 97 | 1010.3 |
| 20260509194508 | 0 | 147 | 221.6 | 0.0 | 0.00 | 0.00 | 0.00 | ||
| 20260509194504 | 50 | 240 | 1.7 | 3.5 | 0.07 | 0.28 | 0.28 | 97 | 1010.2 |
| 20260509194003 | 49 | 192 | 0.9 | 3.5 | 0.08 | 0.28 | 0.28 | 97 | 1010.3 |
| 20260509193503 | 49 | 239 | 0.9 | 4.3 | 0.07 | 0.27 | 0.27 | 97 | 1010.3 |
| 20260509193007 | 0 | 147 | 221.6 | 0.0 | 0.00 | 0.00 | 0.00 | ||
| 20260509193003 | 49 | 230 | 0.9 | 1.7 | 0.07 | 0.26 | 0.26 | 97 | 1010.5 |
| 20260509192502 | 49 | 230 | 1.7 | 2.6 | 0.07 | 0.26 | 0.26 | 97 | 1010.6 |
| 20260509192002 | 49 | 199 | 1.7 | 3.5 | 0.07 | 0.25 | 0.25 | 97 | 1010.8 |
| 20260509191507 | 0 | 147 | 221.6 | 0.0 | 0.00 | 0.00 | 0.00 | ||
| 20260509191502 | 49 | 249 | 0.9 | 2.6 | 0.08 | 0.25 | 0.25 | 97 | 1010.7 |
| 20260509191002 | 49 | 249 | 1.7 | 2.6 | 0.07 | 0.24 | 0.24 | 97 | 1010.8 |
| 20260509190501 | 49 | 250 | 1.7 | 4.3 | 0.07 | 0.23 | 0.23 | 96 | 1011.0 |
| 20260509190006 | 0 | 147 | 221.6 | 0.0 | 0.00 | 0.00 | 0.00 | ||
| 20260509190001 | 49 | 233 | 1.7 | 4.3 | 0.08 | 0.23 | 0.23 | 96 | 1011.1 |
| 20260509185501 | 49 | 250 | 2.6 | 5.2 | 0.07 | 0.22 | 0.22 | 96 | 1011.1 |
| 20260509185000 | 49 | 236 | 2.6 | 5.2 | 0.08 | 0.22 | 0.22 | 96 | 1011.3 |
| 20260509184505 | 0 | 147 | 221.6 | 0.0 | 0.00 | 0.00 | 0.00 | ||
| 20260509184500 | 49 | 229 | 2.6 | 5.2 | 0.08 | 0.21 | 0.21 | 96 | 1011.3 |
| 20260509184000 | 49 | 242 | 1.7 | 5.2 | 0.07 | 0.20 | 0.20 | 96 | 1011.3 |
| 20260509183459 | 49 | 242 | 2.6 | 5.2 | 0.08 | 0.20 | 0.20 | 96 | 1011.3 |
| 20260509183005 | 0 | 147 | 221.6 | 0.0 | 0.00 | 0.00 | 0.00 | ||
| 20260509182959 | 49 | 259 | 2.6 | 7.8 | 0.07 | 0.19 | 0.19 | 96 | 1011.3 |
| 20260509182459 | 48 | 269 | 2.6 | 6.1 | 0.08 | 0.19 | 0.19 | 96 | 1011.2 |
| 20260509181959 | 48 | 246 | 2.6 | 6.1 | 0.08 | 0.18 | 0.18 | 96 | 1011.2 |
| 20260509181503 | 0 | 147 | 221.6 | 0.0 | 0.00 | 0.00 | 0.00 | ||
| 20260509181458 | 48 | 285 | 2.6 | 3.5 | 0.07 | 0.17 | 0.17 | 96 | 1011.2 |
| 20260509180958 | 48 | 252 | 2.6 | 5.2 | 0.08 | 0.17 | 0.17 | 96 | 1011.3 |
| 20260509180458 | 48 | 263 | 3.5 | 7.0 | 0.08 | 0.16 | 0.16 | 96 | 1011.4 |
| 20260509180004 | 0 | 147 | 221.6 | 0.0 | 0.00 | 0.00 | 0.00 | ||
| 20260509175958 | 48 | 241 | 2.6 | 8.7 | 0.07 | 0.15 | 0.15 | 96 | 1011.3 |
| 20260509175457 | 48 | 228 | 2.6 | 6.1 | 0.08 | 0.15 | 0.15 | 96 | 1011.3 |
| 20260509174957 | 48 | 217 | 2.6 | 5.2 | 0.07 | 0.14 | 0.14 | 96 | 1011.2 |
| 20260509174501 | 0 | 147 | 221.6 | 0.0 | 0.00 | 0.00 | 0.00 | ||
| 20260509174457 | 48 | 233 | 1.7 | 5.2 | 0.07 | 0.13 | 0.13 | 96 | 1011.3 |
| 20260509173956 | 48 | 233 | 1.7 | 5.2 | 0.07 | 0.13 | 0.13 | 96 | 1011.3 |
| 20260509173456 | 48 | 233 | 1.7 | 6.1 | 0.07 | 0.12 | 0.12 | 96 | 1011.4 |
| 20260509173000 | 0 | 147 | 221.6 | 0.0 | 0.00 | 0.00 | 0.00 | ||
| 20260509172956 | 49 | 350 | 0.9 | 3.5 | 0.07 | 0.12 | 0.12 | 96 | 1011.3 |
| 20260509172455 | 48 | 220 | 1.7 | 4.3 | 0.06 | 0.11 | 0.11 | 96 | 1011.4 |
| 20260509171955 | 48 | 244 | 1.7 | 7.0 | 0.06 | 0.10 | 0.10 | 96 | 1011.5 |
| 20260509171500 | 0 | 147 | 221.6 | 0.0 | 0.00 | 0.00 | 0.00 | ||
| 20260509171455 | 48 | 167 | 2.6 | 6.1 | 0.06 | 0.10 | 0.10 | 96 | 1011.6 |
| 20260509170954 | 49 | 234 | 2.6 | 5.2 | 0.05 | 0.09 | 0.09 | 96 | 1011.6 |
| 20260509170454 | 49 | 252 | 2.6 | 5.2 | 0.05 | 0.08 | 0.08 | 96 | 1011.7 |
| 20260509170000 | 0 | 147 | 221.6 | 0.0 | 0.00 | 0.00 | 0.00 | ||
| 20260509165954 | 49 | 230 | 2.6 | 6.1 | 0.05 | 0.08 | 0.08 | 96 | 1011.5 |
| 20260509165456 | 49 | 212 | 2.6 | 7.0 | 0.04 | 0.07 | 0.07 | 95 | 1011.5 |
| 20260509164953 | 49 | 201 | 2.6 | 6.1 | 0.04 | 0.07 | 0.07 | 95 | 1011.5 |
| 20260509164458 | 0 | 147 | 221.6 | 0.0 | 0.00 | 0.00 | 0.00 | ||
| 20260509164453 | 49 | 223 | 1.7 | 6.1 | 0.03 | 0.06 | 0.06 | 95 | 1011.5 |
| 20260509163953 | 49 | 257 | 2.6 | 3.5 | 0.03 | 0.06 | 0.06 | 95 | 1011.6 |
| 20260509163452 | 49 | 266 | 2.6 | 6.1 | 0.02 | 0.05 | 0.05 | 95 | 1011.6 |
| 20260509162957 | 0 | 147 | 221.6 | 0.0 | 0.00 | 0.00 | 0.00 | ||
| 20260509162952 | 50 | 234 | 1.7 | 4.3 | 0.02 | 0.05 | 0.05 | 95 | 1011.6 |
| 20260509162452 | 50 | 235 | 1.7 | 4.3 | 0.02 | 0.05 | 0.05 | 95 | 1011.6 |
| 20260509161952 | 50 | 169 | 1.7 | 3.5 | 0.02 | 0.04 | 0.04 | 95 | 1011.6 |
| 20260509161456 | 0 | 147 | 221.6 | 0.0 | 0.00 | 0.00 | 0.00 | ||
| 20260509161452 | 50 | 238 | 1.7 | 4.3 | 0.02 | 0.04 | 0.04 | 95 | 1011.6 |
| 20260509160951 | 50 | 234 | 1.7 | 3.5 | 0.02 | 0.04 | 0.04 | 95 | 1011.7 |
| 20260509160451 | 50 | 167 | 2.6 | 5.2 | 0.01 | 0.03 | 0.03 | 95 | 1011.6 |
| 20260509155956 | 0 | 147 | 221.6 | 0.0 | 0.00 | 0.00 | 0.00 | ||
| 20260509155950 | 50 | 207 | 2.6 | 5.2 | 0.01 | 0.03 | 0.03 | 95 | 1011.8 |
| 20260509155450 | 50 | 181 | 1.7 | 5.2 | 0.01 | 0.03 | 0.03 | 95 | 1011.8 |
| 20260509154950 | 50 | 239 | 1.7 | 3.5 | 0.01 | 0.03 | 0.03 | 95 | 1011.9 |
| 20260509154454 | 0 | 147 | 221.6 | 0.0 | 0.00 | 0.00 | 0.00 | ||
| 20260509154450 | 50 | 224 | 1.7 | 3.5 | 0.01 | 0.03 | 0.03 | 96 | 1011.9 |
| 20260509153949 | 50 | 227 | 1.7 | 4.3 | 0.01 | 0.03 | 0.03 | 95 | 1011.9 |
| 20260509153449 | 49 | 159 | 1.7 | 3.5 | 0.01 | 0.03 | 0.03 | 95 | 1011.9 |
| 20260509152954 | 0 | 147 | 221.6 | 0.0 | 0.00 | 0.00 | 0.00 | ||
| 20260509152949 | 49 | 161 | 1.7 | 3.5 | 0.01 | 0.03 | 0.03 | 95 | 1012.0 |
| 20260509152449 | 49 | 175 | 0.9 | 3.5 | 0.01 | 0.03 | 0.03 | 95 | 1012.1 |
| 20260509151948 | 49 | 190 | 0.9 | 3.5 | 0.00 | 0.02 | 0.02 | 95 | 1012.2 |
| 20260509151453 | 0 | 147 | 221.6 | 0.0 | 0.00 | 0.00 | 0.00 | ||
| 20260509151448 | 49 | 262 | 1.7 | 2.6 | 0.00 | 0.02 | 0.02 | 95 | 1012.1 |
| 20260509150948 | 49 | 263 | 1.7 | 2.6 | 0.00 | 0.02 | 0.02 | 94 | 1012.0 |
| 20260509150447 | 49 | 263 | 0.9 | 4.3 | 0.00 | 0.02 | 0.02 | 94 | 1011.9 |
| 20260509145953 | 0 | 147 | 221.6 | 0.0 | 0.00 | 0.00 | 0.00 | ||
| 20260509145947 | 49 | 142 | 0.9 | 1.7 | 0.01 | 0.02 | 0.02 | 94 | 1011.6 |
| 20260509145447 | 49 | 142 | 0.9 | 1.7 | 0.01 | 0.02 | 0.02 | 94 | 1011.5 |
| 20260509144947 | 49 | 142 | 0.9 | 1.7 | 0.01 | 0.02 | 0.02 | 94 | 1011.5 |
| 20260509144451 | 0 | 147 | 221.6 | 0.0 | 0.00 | 0.00 | 0.00 | ||
| 20260509144447 | 49 | 142 | 0.9 | 1.7 | 0.01 | 0.02 | 0.02 | 94 | 1011.5 |
| 20260509143946 | 49 | 143 | 0.9 | 2.6 | 0.01 | 0.02 | 0.02 | 94 | 1011.5 |
| 20260509143446 | 49 | 143 | 0.9 | 0.9 | 0.02 | 0.02 | 0.02 | 94 | 1011.4 |
| 20260509142950 | 0 | 147 | 221.6 | 0.0 | 0.00 | 0.00 | 0.00 | ||
| 20260509142945 | 48 | 143 | 0.9 | 1.7 | 0.02 | 0.02 | 0.02 | 94 | 1011.6 |
| 20260509142445 | 48 | 143 | 0.0 | 1.7 | 0.02 | 0.02 | 0.02 | 94 | 1011.7 |
| 20260509141945 | 48 | 143 | 0.0 | 1.7 | 0.02 | 0.02 | 0.02 | 94 | 1011.8 |
| 20260509141449 | 0 | 147 | 221.6 | 0.0 | 0.00 | 0.00 | 0.00 | ||
| 20260509141445 | 48 | 143 | 0.0 | 1.7 | 0.02 | 0.02 | 0.02 | 94 | 1011.9 |
| 20260509140946 | 48 | 143 | 0.0 | 2.6 | 0.02 | 0.02 | 0.02 | 94 | 1011.9 |
| 20260509140444 | 48 | 143 | 0.9 | 2.6 | 0.02 | 0.02 | 0.02 | 94 | 1012.0 |
| 20260509135948 | 0 | 147 | 221.6 | 0.0 | 0.00 | 0.00 | 0.00 | ||
| 20260509135946 | 48 | 144 | 0.9 | 0.9 | 0.01 | 0.01 | 0.01 | 93 | 1012.0 |
| 20260509135443 | 48 | 144 | 0.9 | 2.6 | 0.01 | 0.01 | 0.01 | 92 | 1012.0 |
| 20260509134943 | 48 | 144 | 0.9 | 2.6 | 0.01 | 0.01 | 0.01 | 92 | 1011.9 |
| 20260509134447 | 0 | 147 | 221.6 | 0.0 | 0.00 | 0.00 | 0.00 | ||
| 20260509134443 | 48 | 144 | 1.7 | 2.6 | 0.01 | 0.01 | 0.01 | 91 | 1011.8 |
| 20260509133943 | 48 | 126 | 1.7 | 4.3 | 0.01 | 0.01 | 0.01 | 92 | 1011.5 |
| 20260509133442 | 48 | 128 | 0.9 | 3.5 | 0.00 | 0.00 | 0.00 | 91 | 1011.4 |
| 20260509132947 | 0 | 147 | 221.6 | 0.0 | 0.00 | 0.00 | 0.00 | ||
| 20260509132942 | 48 | 128 | 0.9 | 1.7 | 0.00 | 0.00 | 0.00 | 91 | 1011.3 |
| 20260509132442 | 48 | 128 | 0.9 | 3.5 | 0.00 | 0.00 | 0.00 | 90 | 1011.4 |
| 20260509131941 | 48 | 104 | 0.9 | 3.5 | 0.00 | 0.00 | 0.00 | 90 | 1011.3 |
| 20260509131446 | 0 | 147 | 221.6 | 0.0 | 0.00 | 0.00 | 0.00 | ||
| 20260509131441 | 49 | 103 | 0.9 | 2.6 | 0.00 | 0.00 | 0.00 | 89 | 1011.2 |
| 20260509130941 | 49 | 158 | 0.9 | 2.6 | 0.00 | 0.00 | 0.00 | 89 | 1011.1 |
| 20260509130441 | 49 | 159 | 0.9 | 1.7 | 0.00 | 0.00 | 0.00 | 88 | 1011.3 |
| 20260509125946 | 0 | 147 | 221.6 | 0.0 | 0.00 | 0.00 | 0.00 | ||
| 20260509125940 | 48 | 159 | 1.7 | 2.6 | 0.00 | 0.00 | 0.00 | 87 | 1011.6 |
| 20260509125440 | 48 | 109 | 1.7 | 3.5 | 0.00 | 0.00 | 0.00 | 87 | 1011.6 |
| 20260509124940 | 48 | 211 | 1.7 | 4.3 | 0.00 | 0.00 | 0.00 | 87 | 1011.6 |
| 20260509124444 | 0 | 147 | 221.6 | 0.0 | 0.00 | 0.00 | 0.00 | ||
| 20260509124439 | 48 | 192 | 0.9 | 4.3 | 0.00 | 0.00 | 0.00 | 87 | 1011.4 |
| 20260509123939 | 48 | 118 | 0.9 | 2.6 | 0.00 | 0.00 | 0.00 | 86 | 1011.5 |
| 20260509123439 | 48 | 119 | 1.7 | 4.3 | 0.00 | 0.00 | 0.00 | 86 | 1011.7 |
| 20260509122945 | 0 | 147 | 221.6 | 0.0 | 0.00 | 0.00 | 0.00 | ||
| 20260509122938 | 49 | 115 | 0.9 | 2.6 | 0.00 | 0.00 | 0.00 | 85 | 1011.7 |
| 20260509122438 | 49 | 116 | 0.9 | 2.6 | 0.00 | 0.00 | 0.00 | 85 | 1011.7 |
| 20260509121938 | 49 | 116 | 1.7 | 5.2 | 0.00 | 0.00 | 0.00 | 84 | 1011.7 |
| 20260509121442 | 0 | 147 | 221.6 | 0.0 | 0.00 | 0.00 | 0.00 | ||
| 20260509121438 | 49 | 120 | 1.7 | 4.3 | 0.00 | 0.00 | 0.00 | 84 | 1011.8 |
| 20260509120937 | 49 | 69 | 1.7 | 4.3 | 0.00 | 0.00 | 0.00 | 83 | 1011.8 |
| 20260509120437 | 49 | 116 | 0.9 | 3.5 | 0.00 | 0.00 | 0.00 | 83 | 1011.8 |
| 20260509115942 | 0 | 147 | 221.6 | 0.0 | 0.00 | 0.00 | 0.00 | ||
| 20260509115937 | 49 | 123 | 1.7 | 2.6 | 0.00 | 0.00 | 0.00 | 82 | 1011.9 |
| 20260509115436 | 49 | 217 | 1.7 | 4.3 | 0.00 | 0.00 | 0.00 | 82 | 1012.1 |
| 20260509114936 | 49 | 75 | 0.9 | 6.1 | 0.00 | 0.00 | 0.00 | 82 | 1011.6 |
| 20260509114440 | 0 | 147 | 221.6 | 0.0 | 0.00 | 0.00 | 0.00 | ||
| 20260509114436 | 48 | 76 | 0.9 | 2.6 | 0.00 | 0.00 | 0.00 | 83 | 1011.6 |
| 20260509113935 | 48 | 76 | 0.9 | 1.7 | 0.00 | 0.00 | 0.00 | 82 | 1011.4 |
| 20260509113435 | 48 | 76 | 0.9 | 3.5 | 0.00 | 0.00 | 0.00 | 83 | 1011.5 |
| 20260509112940 | 0 | 147 | 221.6 | 0.0 | 0.00 | 0.00 | 0.00 | ||
| 20260509112935 | 48 | 76 | 0.9 | 2.6 | 0.00 | 0.00 | 0.00 | 83 | 1011.5 |
| 20260509112434 | 48 | 75 | 0.9 | 2.6 | 0.00 | 0.00 | 0.00 | 82 | 1011.5 |
| 20260509111934 | 48 | 74 | 1.7 | 3.5 | 0.00 | 0.00 | 0.00 | 82 | 1011.4 |
| 20260509111439 | 0 | 147 | 221.6 | 0.0 | 0.00 | 0.00 | 0.00 | ||
| 20260509111434 | 48 | 85 | 1.7 | 5.2 | 0.00 | 0.00 | 0.00 | 82 | 1011.6 |
| 20260509110934 | 48 | 81 | 0.9 | 2.6 | 0.00 | 0.00 | 0.00 | 83 | 1011.6 |
| 20260509110433 | 48 | 82 | 0.9 | 1.7 | 0.00 | 0.00 | 0.00 | 83 | 1011.7 |
| 20260509105938 | 0 | 147 | 221.6 | 0.0 | 0.00 | 0.00 | 0.00 | ||
| 20260509105933 | 48 | 82 | 0.9 | 1.7 | 0.00 | 0.00 | 0.00 | 83 | 1011.7 |
| 20260509105433 | 48 | 82 | 0.9 | 4.3 | 0.00 | 0.00 | 0.00 | 82 | 1011.5 |
| 20260509104932 | 48 | 98 | 0.9 | 3.5 | 0.00 | 0.00 | 0.00 | 84 | 1011.4 |
| 20260509104432 | 48 | 108 | 0.9 | 2.6 | 0.00 | 0.00 | 0.00 | 84 | 1011.5 |
| 20260509103932 | 48 | 109 | 1.7 | 4.3 | 0.00 | 0.00 | 0.00 | 84 | 1011.2 |
| 20260509103432 | 48 | 105 | 1.7 | 5.2 | 0.00 | 0.00 | 0.00 | 84 | 1011.1 |
| 20260509102936 | 0 | 147 | 221.6 | 0.0 | 0.00 | 0.00 | 0.00 | ||
| 20260509102931 | 47 | 65 | 1.7 | 5.2 | 0.00 | 0.00 | 0.00 | 84 | 1011.0 |
| 20260509102431 | 47 | 128 | 0.9 | 2.6 | 0.00 | 0.00 | 0.00 | 85 | 1011.1 |
| 20260509101931 | 47 | 147 | 0.9 | 1.7 | 0.00 | 0.00 | 0.00 | 85 | 1011.3 |
| 20260509101435 | 0 | 147 | 221.6 | 0.0 | 0.00 | 0.00 | 0.00 | ||
| 20260509101430 | 47 | 158 | 0.0 | 1.7 | 0.00 | 0.00 | 0.00 | 84 | 1011.3 |
| 20260509100930 | 47 | 158 | 0.9 | 0.9 | 0.00 | 0.00 | 0.00 | 84 | 1011.4 |
| 20260509100430 | 47 | 158 | 0.9 | 2.6 | 0.00 | 0.00 | 0.00 | 84 | 1011.3 |
| 20260509095934 | 0 | 147 | 221.6 | 0.0 | 0.00 | 0.00 | 0.00 | ||
| 20260509095930 | 47 | 199 | 0.0 | 0.9 | 0.00 | 0.00 | 0.00 | 84 | 1011.4 |
| 20260509095429 | 47 | 199 | 0.0 | 1.7 | 0.00 | 0.00 | 0.00 | 83 | 1011.5 |
| 20260509094937 | 47 | 200 | 0.0 | 0.9 | 0.00 | 0.00 | 0.00 | 83 | 1011.6 |
| 20260509094433 | 0 | 147 | 221.6 | 0.0 | 0.00 | 0.00 | 0.00 | ||
| 20260509094429 | 47 | 200 | 0.0 | 0.9 | 0.00 | 0.00 | 0.00 | 82 | 1011.7 |
| 20260509093928 | 47 | 200 | 0.0 | 0.0 | 0.00 | 0.00 | 0.00 | 82 | 1011.8 |
| 20260509093428 | 48 | 200 | 0.0 | 0.9 | 0.00 | 0.00 | 0.00 | 81 | 1011.7 |
| 20260509092933 | 0 | 147 | 221.6 | 0.0 | 0.00 | 0.00 | 0.00 | ||
| 20260509092928 | 48 | 200 | 0.0 | 1.7 | 0.00 | 0.00 | 0.00 | 81 | 1011.7 |
| 20260509092428 | 48 | 200 | 0.0 | 1.7 | 0.00 | 0.00 | 0.00 | 80 | 1011.7 |
| 20260509091927 | 48 | 200 | 0.0 | 1.7 | 0.00 | 0.00 | 0.00 | 80 | 1011.7 |
| 20260509091432 | 0 | 147 | 221.6 | 0.0 | 0.00 | 0.00 | 0.00 | ||
| 20260509091427 | 48 | 201 | 0.0 | 0.9 | 0.00 | 0.00 | 0.00 | 80 | 1011.8 |
| 20260509090927 | 48 | 201 | 0.0 | 0.9 | 0.00 | 0.00 | 0.00 | 80 | 1011.8 |
| 20260509090426 | 48 | 201 | 0.0 | 0.9 | 0.00 | 0.00 | 0.00 | 80 | 1011.9 |
| 20260509085933 | 0 | 147 | 221.6 | 0.0 | 0.00 | 0.00 | 0.00 | ||
| 20260509085926 | 48 | 202 | 0.0 | 0.0 | 0.00 | 0.00 | 0.00 | 80 | 1011.9 |
| 20260509085426 | 48 | 202 | 0.0 | 0.0 | 0.00 | 0.00 | 0.00 | 80 | 1011.9 |
| 20260509084925 | 48 | 201 | 0.0 | 0.0 | 0.00 | 0.00 | 0.00 | 80 | 1011.9 |
| 20260509084427 | 48 | 201 | 0.0 | 0.0 | 0.00 | 0.00 | 0.00 | 81 | 1012.0 |
| 20260509083925 | 48 | 201 | 0.0 | 0.0 | 0.00 | 0.00 | 0.00 | 81 | 1012.1 |
| 20260509083425 | 48 | 202 | 0.0 | 0.0 | 0.00 | 0.00 | 0.00 | 81 | 1012.2 |
| 20260509082929 | 0 | 147 | 221.6 | 0.0 | 0.00 | 0.00 | 0.00 | ||
| 20260509082924 | 48 | 201 | 0.0 | 0.0 | 0.00 | 0.00 | 0.00 | 81 | 1012.2 |
| 20260509082424 | 48 | 202 | 0.0 | 0.0 | 0.00 | 0.00 | 0.00 | 82 | 1012.2 |
| 20260509081924 | 48 | 201 | 0.0 | 0.0 | 0.00 | 0.00 | 0.00 | 82 | 1012.2 |
| 20260509081428 | 0 | 147 | 221.6 | 0.0 | 0.00 | 0.00 | 0.00 | ||
| 20260509081424 | 47 | 202 | 0.0 | 0.0 | 0.00 | 0.00 | 0.00 | 82 | 1012.2 |
| 20260509080923 | 47 | 201 | 0.0 | 0.0 | 0.00 | 0.00 | 0.00 | 82 | 1012.4 |
| 20260509080423 | 47 | 202 | 0.0 | 0.0 | 0.00 | 0.00 | 0.00 | 82 | 1012.4 |
| 20260509075927 | 0 | 147 | 221.6 | 0.0 | 0.00 | 0.00 | 0.00 | ||
| 20260509075923 | 48 | 202 | 0.0 | 0.0 | 0.00 | 0.00 | 0.00 | 82 | 1012.5 |
| 20260509075422 | 48 | 202 | 0.0 | 0.0 | 0.00 | 0.00 | 0.00 | 82 | 1012.4 |
| 20260509074922 | 48 | 201 | 0.0 | 0.0 | 0.00 | 0.00 | 0.00 | 82 | 1012.4 |
| 20260509074427 | 0 | 147 | 221.6 | 0.0 | 0.00 | 0.00 | 0.00 | ||
| 20260509074422 | 48 | 201 | 0.0 | 0.0 | 0.00 | 0.00 | 0.00 | 82 | 1012.5 |
| 20260509073921 | 48 | 201 | 0.0 | 0.0 | 0.00 | 0.00 | 0.00 | 82 | 1012.5 |
| 20260509073421 | 48 | 202 | 0.0 | 0.0 | 0.00 | 0.00 | 0.00 | 83 | 1012.5 |
| 20260509072926 | 0 | 147 | 221.6 | 0.0 | 0.00 | 0.00 | 0.00 | ||
| 20260509072921 | 47 | 202 | 0.0 | 0.9 | 0.00 | 0.00 | 0.00 | 83 | 1012.5 |
| 20260509072421 | 47 | 202 | 0.0 | 0.9 | 0.00 | 0.00 | 0.00 | 83 | 1012.4 |
| 20260509071920 | 47 | 202 | 0.0 | 0.0 | 0.00 | 0.00 | 0.00 | 84 | 1012.4 |
| 20260509071426 | 0 | 147 | 221.6 | 0.0 | 0.00 | 0.00 | 0.00 | ||
| 20260509071420 | 47 | 202 | 0.0 | 0.0 | 0.00 | 0.00 | 0.00 | 84 | 1012.4 |
| 20260509070920 | 47 | 202 | 0.0 | 0.0 | 0.00 | 0.00 | 0.00 | 84 | 1012.5 |
| 20260509070419 | 47 | 202 | 0.0 | 0.0 | 0.00 | 0.00 | 0.00 | 84 | 1012.6 |
| 20260509065924 | 0 | 147 | 221.6 | 0.0 | 0.00 | 0.00 | 0.00 | ||
| 20260509065919 | 47 | 201 | 0.0 | 0.0 | 0.00 | 0.00 | 0.00 | 84 | 1012.6 |
| 20260509065419 | 47 | 202 | 0.0 | 0.0 | 0.00 | 0.00 | 0.00 | 84 | 1012.6 |
| 20260509064919 | 47 | 201 | 0.0 | 0.9 | 0.00 | 0.00 | 0.00 | 85 | 1012.6 |
| 20260509064424 | 0 | 147 | 221.6 | 0.0 | 0.00 | 0.00 | 0.00 | ||
| 20260509064419 | 48 | 202 | 0.0 | 0.9 | 0.00 | 0.00 | 0.00 | 85 | 1012.6 |
| 20260509063918 | 48 | 201 | 0.0 | 1.7 | 0.00 | 0.00 | 0.00 | 84 | 1012.7 |
| 20260509063418 | 48 | 202 | 0.9 | 0.9 | 0.00 | 0.00 | 0.00 | 85 | 1012.7 |
| 20260509062923 | 0 | 147 | 221.6 | 0.0 | 0.00 | 0.00 | 0.00 | ||
| 20260509062918 | 48 | 202 | 0.9 | 1.7 | 0.00 | 0.01 | 0.00 | 86 | 1012.7 |
| 20260509062417 | 48 | 201 | 0.0 | 1.7 | 0.00 | 0.01 | 0.00 | 86 | 1012.6 |
| 20260509061917 | 48 | 201 | 0.0 | 0.0 | 0.00 | 0.01 | 0.00 | 85 | 1012.6 |
| 20260509061423 | 0 | 147 | 221.6 | 0.0 | 0.00 | 0.00 | 0.00 | ||
| 20260509061416 | 47 | 201 | 0.0 | 0.0 | 0.00 | 0.01 | 0.00 | 84 | 1012.5 |
| 20260509060916 | 47 | 201 | 0.0 | 0.9 | 0.00 | 0.01 | 0.00 | 85 | 1012.5 |
| 20260509060416 | 47 | 201 | 0.0 | 0.9 | 0.00 | 0.01 | 0.00 | 85 | 1012.6 |
| 20260509055921 | 0 | 147 | 221.6 | 0.0 | 0.00 | 0.00 | 0.00 | ||
| 20260509055415 | 48 | 201 | 0.0 | 0.0 | 0.00 | 0.01 | 0.00 | 85 | 1012.5 |
| 20260509054420 | 0 | 147 | 221.6 | 0.0 | 0.00 | 0.00 | 0.00 | ||
| 20260509054415 | 48 | 201 | 0.0 | 0.0 | 0.00 | 0.01 | 0.00 | 85 | 1012.6 |
| 20260509053915 | 48 | 201 | 0.0 | 0.0 | 0.00 | 0.01 | 0.00 | 85 | 1012.7 |
| 20260509053414 | 48 | 201 | 0.0 | 1.7 | 0.00 | 0.01 | 0.00 | 85 | 1012.8 |
| 20260509052919 | 0 | 147 | 221.6 | 0.0 | 0.00 | 0.00 | 0.00 | ||
| 20260509052914 | 48 | 201 | 0.9 | 0.9 | 0.00 | 0.04 | 0.00 | 84 | 1013.1 |
| 20260509052414 | 48 | 201 | 0.9 | 2.6 | 0.00 | 0.04 | 0.00 | 83 | 1013.4 |
| 20260509051913 | 48 | 240 | 0.9 | 3.5 | 0.00 | 0.04 | 0.00 | 83 | 1013.6 |
| 20260509051418 | 0 | 147 | 221.6 | 0.0 | 0.00 | 0.00 | 0.00 | ||
| 20260509051413 | 48 | 242 | 0.9 | 3.5 | 0.00 | 0.04 | 0.00 | 83 | 1013.7 |
| 20260509050913 | 48 | 169 | 0.9 | 2.6 | 0.00 | 0.04 | 0.00 | 83 | 1013.6 |
| 20260509050412 | 48 | 169 | 1.7 | 2.6 | 0.00 | 0.04 | 0.00 | 83 | 1013.6 |
| 20260509045917 | 0 | 147 | 221.6 | 0.0 | 0.00 | 0.00 | 0.00 | ||
| 20260509045912 | 48 | 240 | 1.7 | 4.3 | 0.00 | 0.04 | 0.00 | 82 | 1013.6 |
| 20260509045412 | 48 | 270 | 1.7 | 3.5 | 0.00 | 0.04 | 0.00 | 83 | 1013.6 |
| 20260509044912 | 48 | 177 | 1.7 | 3.5 | 0.00 | 0.04 | 0.00 | 82 | 1013.6 |
| 20260509044416 | 0 | 147 | 221.6 | 0.0 | 0.00 | 0.00 | 0.00 | ||
| 20260509044411 | 48 | 186 | 1.7 | 4.3 | 0.00 | 0.04 | 0.00 | 83 | 1013.6 |
| 20260509043911 | 48 | 135 | 1.7 | 3.5 | 0.00 | 0.04 | 0.00 | 83 | 1013.5 |
| 20260509043411 | 48 | 169 | 1.7 | 3.5 | 0.00 | 0.04 | 0.00 | 83 | 1013.5 |
| 20260509042915 | 0 | 147 | 221.6 | 0.0 | 0.00 | 0.00 | 0.00 | ||
| 20260509042910 | 48 | 195 | 0.9 | 4.3 | 0.00 | 0.04 | 0.00 | 84 | 1013.5 |
| 20260509042410 | 48 | 261 | 0.9 | 1.7 | 0.00 | 0.04 | 0.00 | 84 | 1013.2 |
| 20260509041910 | 49 | 261 | 0.0 | 2.6 | 0.00 | 0.04 | 0.00 | 82 | 1013.0 |
| 20260509041414 | 0 | 147 | 221.6 | 0.0 | 0.00 | 0.00 | 0.00 | ||
| 20260509041410 | 49 | 261 | 0.0 | 0.0 | 0.00 | 0.04 | 0.00 | 82 | 1012.6 |
| 20260509040909 | 49 | 261 | 0.0 | 0.9 | 0.00 | 0.04 | 0.00 | 81 | 1012.5 |
| 20260509040409 | 49 | 261 | 0.9 | 1.7 | 0.00 | 0.04 | 0.04 | 82 | 1012.8 |
| 20260509035914 | 0 | 147 | 221.6 | 0.0 | 0.00 | 0.00 | 0.00 | ||
| 20260509035909 | 49 | 261 | 0.9 | 2.6 | 0.00 | 0.04 | 0.04 | 82 | 1013.0 |
| 20260509035408 | 49 | 261 | 0.9 | 1.7 | 0.00 | 0.04 | 0.04 | 83 | 1013.0 |
| 20260509034908 | 49 | 261 | 0.9 | 2.6 | 0.00 | 0.04 | 0.04 | 82 | 1012.9 |
| 20260509034413 | 0 | 147 | 221.6 | 0.0 | 0.00 | 0.00 | 0.00 | ||
| 20260509034408 | 49 | 213 | 0.9 | 4.3 | 0.00 | 0.04 | 0.04 | 82 | 1012.9 |
| 20260509033907 | 49 | 237 | 0.0 | 1.7 | 0.00 | 0.04 | 0.04 | 82 | 1012.9 |
| 20260509033407 | 49 | 237 | 0.0 | 1.7 | 0.00 | 0.04 | 0.04 | 81 | 1013.1 |
| 20260509032912 | 0 | 147 | 221.6 | 0.0 | 0.00 | 0.00 | 0.00 | ||
| 20260509032907 | 49 | 237 | 0.0 | 0.9 | 0.00 | 0.04 | 0.04 | 80 | 1013.1 |
| 20260509032407 | 49 | 237 | 0.0 | 1.7 | 0.00 | 0.04 | 0.04 | 79 | 1013.3 |
| 20260509031907 | 49 | 237 | 0.0 | 2.6 | 0.00 | 0.04 | 0.04 | 79 | 1013.4 |
| 20260509031411 | 0 | 147 | 221.6 | 0.0 | 0.00 | 0.00 | 0.00 | ||
| 20260509031406 | 49 | 236 | 0.0 | 1.7 | 0.00 | 0.04 | 0.04 | 79 | 1013.5 |